This is the latest recevied weather packets stored in our database for station/object KO4LCK. If no packets are shown the sender has not sent any weather packets the latest 10 day(s).
| Time | Temp. | Humidity | Pressure | Rain* | Wind** | Luminosity | Snow |
|---|---|---|---|---|---|---|---|
| 1777836002 | 21.67° C | 35% | 1020.3 hPa | 0 mm | - | 753 W/m² | - |
| 1777835699 | 21.67° C | 39% | 1020.4 hPa | 0 mm | - | 756 W/m² | - |
| 1777835395 | 21.67° C | 36% | 1020.4 hPa | 0 mm | - | 766 W/m² | - |
| 1777835093 | 21.67° C | 35% | 1020.5 hPa | 0 mm | - | 770 W/m² | - |
| 1777834790 | 22.22° C | 40% | 1020.4 hPa | 0 mm | - | 779 W/m² | - |
| 1777834486 | 21.67° C | 39% | 1020.5 hPa | 0 mm | - | 783 W/m² | - |
| 1777834186 | 21.67° C | 40% | 1020.5 hPa | 0 mm | - | 791 W/m² | - |
| 1777833882 | 21.67° C | 39% | 1020.7 hPa | 0 mm | - | 798 W/m² | - |
| 1777833578 | 21.67° C | 42% | 1020.8 hPa | 0 mm | - | 801 W/m² | - |
| 1777833275 | 20.56° C | 42% | 1020.9 hPa | 0 mm | - | 807 W/m² | - |
| 1777832972 | 20.56° C | 42% | 1021 hPa | 0 mm | - | 809 W/m² | - |
| 1777832671 | 20.56° C | 39% | 1020.9 hPa | 0 mm | - | 815 W/m² | - |
| 1777832368 | 20.56° C | 38% | 1021 hPa | 0 mm | - | 818 W/m² | - |
| 1777832065 | 21.11° C | 41% | 1020.9 hPa | 0 mm | - | 823 W/m² | - |
| 1777831761 | 20.56° C | 40% | 1021.1 hPa | 0 mm | - | 827 W/m² | - |
| 1777831460 | 20.56° C | 37% | 1021.3 hPa | 0 mm | - | 832 W/m² | - |
| 1777831157 | 20.56° C | 42% | 1021.3 hPa | 0 mm | - | 835 W/m² | - |
| 1777830855 | 20° C | 41% | 1021.3 hPa | 0 mm | - | 836 W/m² | - |
| 1777830550 | 20.56° C | 44% | 1021.5 hPa | 0 mm | - | 837 W/m² | - |
| 1777830249 | 20.56° C | 41% | 1021.4 hPa | 0 mm | - | 837 W/m² | - |
| 1777829948 | 20.56° C | 39% | 1021.5 hPa | 0 mm | - | 836 W/m² | - |
| 1777829645 | 20.56° C | 41% | 1021.6 hPa | 0 mm | - | 840 W/m² | - |
| 1777829342 | 20° C | 41% | 1021.6 hPa | 0 mm | - | 839 W/m² | - |
| 1777829039 | 20° C | 38% | 1021.5 hPa | 0 mm | - | 842 W/m² | - |
| 1777828735 | 20° C | 43% | 1021.7 hPa | 0 mm | - | 838 W/m² | - |
* Rain latest hour (hover to see other rain measurements)
** Current wind speed in m/s (hover to see current wind gust speed)